Regional Weather Roundup
Issued by NWS Jackson, KY

Home | Current Version | Previous Version | Text Only | Print | Product List | Glossary Off
Versions: 1 2 3 4 5 6 7 8 9 10 11 12 13 14 15 16 17 18 19 20 21 22 23 24 25 26 27 28 29 30 31 32 33 34 35 36 37 38 39 40 41 42 43 44 45 46 47 48 49 50

222
ASUS43 KJKL 281410
RWRJKL

EAST KENTUCKY HOURLY WEATHER ROUNDUP
NATIONAL WEATHER SERVICE JACKSON KY
1000 AM EDT WED SEP 28 2016

NOTE: "FAIR" INDICATES FEW OR NO CLOUDS BELOW 12,000 FEET WITH
NO SIGNIFICANT WEATHER AND/OR OBSTRUCTIONS TO VISIBILITY.

* THESE REPORTS ARE NOT UNDER NWS QUALITY CONTROL AND MAY NOT
  REPORT WEATHER SUCH AS PRECIPITATION AND FOG.

KYZ079-080-083-085-087-088-110-112-115-119-120-281500
...EASTERN KENTUCKY...

CITY           SKY/WX    TMP DP  RH WIND       PRES   REMARKS
JACKSON        SUNNY     60  47  61 CALM      29.94S
LONDON         SUNNY     59  48  67 S5        29.95S
SOMERSET*      SUNNY     59  46  63 S5        29.95S
MONTICELLO*    SUNNY     65  49  56 E6        29.95S
WILLIAMSBURG*  SUNNY     57  50  77 SE3       29.96S
MIDDLESBORO*   SUNNY     53  49  88 CALM      29.99S
HARLAN APT*    CLOUDY    50  48  93 CALM      29.99S
PIKE CO APT*     N/A     58  48  69 S5        29.96R
BIG SANDY APT* SUNNY     62  48  58 S3        29.95R
MOREHEAD APT*  MOSUNNY   63  48  59 S9        29.91F
ASHLAND*       SUNNY     61  48  63 SE5       29.90S
$$

KYZ035-036-041-042-044-050-067-078-099-281500
...CENTRAL KENTUCKY...

CITY           SKY/WX    TMP DP  RH WIND       PRES   REMARKS
MT STERLING*   SUNNY     64  48  55 SW10G16   29.89F
FLEMING/MASON* MOSUNNY   64  47  53 S12G18    29.87F
DANVILLE*      SUNNY     63  50  63 SW12      29.90S
LEXINGTON      PTSUNNY   65  46  50 S14       29.86F
FRANKFORT      CLOUDY    65  47  52 S12G20    29.83F
LOUISVILLE     LGT RAIN  62  51  67 SW8       29.83R
LEBANON*         N/A     64  48  55 S12G17    29.88S
GLASGOW*       PTSUNNY   62  50  66 SW8       29.90S
BOWLING GREEN  PTSUNNY   67  51  56 S10       29.89S
$$

KYZ091>093-OHZ055-061-077-WVZ005-015-034-035-042-281500
...SOUTHERN OHIO/WEST VIRGINIA...

CITY           SKY/WX    TMP DP  RH WIND       PRES   REMARKS
COVINGTON      CLOUDY    60  53  77 NE3       29.84S
COLUMBUS       CLOUDY    60  50  69 NE6       29.88F
DAYTON         RAIN      54  54 100 SE8       29.86R FOG
WILMINGTON     CLOUDY    59  49  69 N7        29.88R
HUNTINGTON     SUNNY     62  47  57 S7        29.92R
CHARLESTON     SUNNY     57  48  72 CALM      29.94R
PINEVILLE*     SUNNY     56  49  77 MISG      30.01S
BECKLEY        SUNNY     61  45  55 SE9       29.98S
BLUEFIELD      SUNNY     60  47  61 VRB3      30.00S
LOGAN CO APT*    N/A     59  52  77 CALM      29.95R
$$

VAZ002-007-008-TNZ017-027-036-066-071-281500
...SOUTHWEST VIRGINIA/EAST TENNESSEE...

CITY           SKY/WX    TMP DP  RH WIND       PRES   REMARKS
WISE*          SUNNY     63  39  42 SW5       30.00S
JONESVILLE*      N/A     59  48  67 CALM      30.01R
ABINGDON*      CLOUDY    63  59  87 CALM      29.99S
BRISTOL        MOSUNNY   62  59  90 CALM      29.97S FOG
MORRISTOWN*    SUNNY     66  55  68 CALM      29.96S
SEVIERVILLE*   SUNNY     64  54  68 VRB3      29.96R
KNOXVILLE      MOSUNNY   64  53  67 SW5       29.96R
OAK RIDGE      SUNNY     62  50  64 CALM      29.98S
CROSSVILLE     SUNNY     63  46  54 S5        29.99S
NASHVILLE      MOSUNNY   64  49  57 S9        29.94S
$$

...KEY TO REMARKS...
VSB - VISIBILITY IN MILES
WCI - WIND CHILL INDEX
HX  - HEAT INDEX

$$




USA.gov is the U.S. government's official web portal to all federal, state and local government web resources and services.